Theta_e
323 321 319 323 325 323 324 323 324 324 321 324 324 325 326 325 326 325 325 326 325 325 325 325 324 324 323 322 322 323 323 323 324 323 323 323 323 322 320 319 316 307 303 303 302 303 305 308 312 317 319 319 319 319 319 318 318 318 317 317 316 315 314 311 308 305 300 297 295 295 294 295 294 294 295 296 296 297 297 297 296 296 296 296 297
324 323 321 323 323 321 324 324 324 325 323 325 326 325 326 325 326 325 325 325 325 325 324 324 323 323 323 322 323 323 323 323 324 323 323 323 322 321 320 320 316 303 297 297 296 297 297 299 307 316 319 318 319 318 318 317 317 317 315 316 315 312 310 307 303 301 298 296 295 294 294 294 294 295 296 296 297 297 298 297 297 298 298 300 301
324 324 324 323 320 318 324 325 324 326 325 326 326 325 326 326 326 325 325 324 324 324 324 323 323 323 323 323 323 323 324 323 323 323 322 321 321 321 319 320 315 306 302 297 295 296 295 296 302 311 317 317 318 318 316 315 314 314 314 315 313 308 304 302 299 297 296 296 295 294 294 294 294 295 296 298 299 299 301 302 303 305 307 308 309
325 324 325 324 322 322 325 326 325 326 326 325 326 325 326 325 325 325 325 324 323 323 323 322 323 323 322 323 323 323 324 323 323 322 320 320 320 320 319 317 312 308 308 300 295 296 295 296 297 303 311 314 317 316 314 313 311 311 312 312 309 305 300 297 296 295 296 295 294 294 294 294 295 297 300 302 302 303 306 307 308 309 310 310 310
327 325 326 326 325 325 327 326 326 326 326 326 325 325 325 325 325 325 325 324 323 323 323 323 323 323 323 323 323 323 324 324 323 320 320 320 319 319 317 312 309 308 309 302 296 295 295 295 295 298 305 310 313 314 313 310 306 306 308 307 304 302 297 294 295 295 294 294 294 295 295 297 300 302 304 305 306 307 308 309 309 309 309 309 310
327 326 326 327 327 326 326 326 326 326 326 325 325 325 325 325 325 324 324 324 323 323 322 322 323 323 324 323 323 324 323 323 321 319 320 320 318 316 308 304 306 308 308 303 296 295 295 294 294 295 298 301 305 309 310 306 300 299 303 303 301 298 295 294 294 295 295 295 296 298 299 301 303 304 305 306 307 308 308 308 308 308 308 308 308
328 326 326 327 327 326 326 326 326 326 325 325 325 325 325 325 325 324 323 323 323 323 322 323 323 323 323 323 324 323 322 322 320 319 320 318 315 310 301 298 302 304 305 303 298 294 294 294 294 294 294 294 297 300 302 300 297 296 297 298 297 295 294 294 295 298 299 298 299 300 301 304 306 306 306 307 307 307 307 307 307 307 308 308 308
328 328 327 327 327 327 326 326 326 326 325 325 325 324 324 325 325 324 323 323 323 323 324 324 323 323 323 323 323 322 322 321 319 319 318 313 312 309 302 297 297 299 300 300 299 297 295 294 294 294 294 294 294 294 295 295 295 294 293 294 294 294 296 297 298 300 299 298 300 301 302 305 307 307 307 307 307 307 307 307 307 307 307 307 307
328 328 328 327 327 327 327 327 326 326 325 325 325 324 324 325 324 324 324 324 324 324 324 324 323 323 322 323 322 321 322 320 319 318 311 305 307 306 303 297 295 298 297 297 299 298 296 295 294 294 294 294 294 293 293 293 293 293 293 293 293 294 297 299 300 299 297 298 300 301 302 305 306 306 306 306 306 306 306 306 306 306 306 306 306
327 328 328 328 327 327 327 326 327 326 325 325 325 324 325 324 325 325 325 324 324 324 323 322 322 322 322 322 322 322 322 318 318 316 307 304 302 300 299 296 295 297 296 295 296 296 296 295 294 294 294 294 294 294 293 293 293 293 292 292 293 294 297 300 300 298 296 298 300 300 300 302 304 304 305 305 305 305 304 305 304 304 305 305 304
327 328 327 328 328 328 327 327 327 327 326 325 324 324 325 324 324 325 326 325 324 323 322 320 322 322 322 322 321 322 321 318 318 314 307 306 301 295 296 295 295 295 295 295 294 294 294 294 293 293 293 294 294 293 293 292 292 292 292 292 292 293 296 299 300 297 294 297 298 299 301 302 303 304 304 304 303 303 303 304 303 303 304 303 303
328 328 328 327 327 328 327 327 327 327 326 326 324 324 325 325 324 325 326 325 324 324 322 320 321 322 322 321 321 321 320 317 317 314 309 305 298 295 295 295 295 295 295 294 294 294 293 293 293 293 293 294 295 295 293 292 292 291 291 291 291 292 294 297 298 295 293 293 295 299 302 302 303 303 303 303 302 302 302 302 303 303 303 302 303
328 329 328 328 327 328 327 327 327 327 327 326 325 325 326 326 325 326 326 325 325 324 322 321 322 322 321 320 320 319 319 318 316 316 312 303 296 295 295 295 295 296 297 295 293 293 293 293 293 293 293 293 295 297 295 292 291 291 290 291 290 291 292 293 294 293 291 292 295 300 302 302 302 302 302 302 302 302 302 302 302 302 302 302 302
329 329 329 328 327 327 327 327 327 327 326 326 326 326 327 326 326 326 324 323 324 325 323 322 321 321 320 319 319 318 318 317 315 315 310 301 295 295 295 295 295 296 298 297 294 293 293 293 293 293 292 293 294 296 295 292 290 290 290 290 290 290 290 291 292 292 291 293 298 301 301 301 301 301 301 301 301 301 301 301 301 301 301 301 301
329 329 329 329 328 327 327 327 327 327 326 326 326 327 327 326 326 325 324 323 323 324 324 322 320 320 319 320 319 318 318 316 314 314 309 300 296 294 295 295 295 295 296 297 296 293 293 293 292 292 292 294 295 295 294 291 290 290 290 290 290 289 289 290 291 291 291 296 299 300 300 300 300 300 300 300 300 300 300 300 300 300 300 300 300
329 329 329 328 328 328 327 327 327 327 327 327 327 326 326 327 325 323 323 324 324 324 323 321 320 318 320 321 318 318 322 318 312 311 308 303 299 294 294 295 294 294 294 296 296 294 292 292 292 292 293 294 295 293 291 290 290 290 289 289 289 289 289 289 290 291 294 298 299 298 298 299 299 299 299 299 299 299 299 299 299 299 299 299 299
330 330 329 328 328 328 328 327 327 327 327 327 327 327 327 327 325 323 322 323 324 323 322 321 319 317 319 321 316 317 321 316 311 309 306 306 303 296 294 294 294 294 293 294 296 294 292 292 292 292 293 293 293 291 290 290 289 289 289 289 289 289 289 289 289 291 295 297 296 296 297 298 298 298 298 298 298 298 298 298 298 299 298 298 297
331 330 330 329 328 328 328 328 327 327 327 327 327 327 327 327 325 324 322 323 324 323 322 321 319 317 317 318 318 317 315 311 311 310 306 306 304 300 298 294 293 294 293 294 294 293 292 292 291 292 293 293 292 291 290 289 289 289 289 288 288 288 288 289 289 290 292 292 293 295 296 296 296 296 297 297 297 297 297 298 298 298 297 296 296
331 331 330 330 329 328 328 329 328 328 328 327 327 327 327 327 325 324 323 324 324 322 322 320 318 317 316 316 315 314 312 311 311 309 306 306 304 302 301 296 294 294 293 293 293 293 292 292 291 291 293 294 292 290 289 289 289 289 288 288 288 288 288 289 289 290 289 290 292 294 294 295 295 295 296 296 296 297 297 297 297 297 296 296 297
331 331 331 330 329 329 328 329 329 328 328 328 328 327 327 326 325 324 324 324 323 322 321 319 318 315 314 314 311 307 308 309 307 305 306 307 305 303 302 298 297 296 294 293 293 293 292 292 292 291 292 293 292 290 289 289 289 289 288 288 288 288 288 288 289 289 288 289 291 293 293 294 294 294 295 295 296 296 296 296 296 296 296 296 297
332 331 331 330 329 329 328 328 329 328 328 328 328 327 326 325 324 324 325 324 323 322 320 319 317 314 312 312 309 303 301 301 299 300 304 306 306 303 300 299 299 299 297 293 292 292 293 292 292 292 292 292 292 291 289 288 289 288 288 288 288 288 288 288 289 289 289 290 291 291 292 292 293 293 294 294 295 295 295 295 295 295 295 296 296
332 331 331 330 329 329 329 329 329 329 328 328 327 327 325 324 323 325 325 323 322 321 319 318 317 316 312 309 306 302 299 297 295 298 302 303 304 301 299 300 299 298 297 295 294 293 293 293 292 292 292 292 292 291 289 288 288 288 288 287 287 288 287 288 289 289 289 290 291 291 291 291 292 292 293 294 294 294 294 294 295 295 295 295 296
331 331 331 330 329 329 329 329 329 328 328 327 326 325 324 323 323 325 324 322 320 319 318 317 316 316 312 306 302 299 298 297 294 296 299 300 303 302 299 299 298 296 297 297 296 294 293 293 293 292 291 292 292 291 290 288 288 288 287 287 287 287 286 287 288 289 290 291 290 290 290 291 291 291 292 292 292 293 293 293 294 294 294 295 296
330 331 331 330 330 329 329 329 328 328 327 326 325 325 324 323 323 324 322 320 320 319 318 316 316 315 311 304 301 299 300 301 297 295 299 300 301 301 298 297 297 296 296 297 297 295 294 294 294 293 292 292 292 291 290 288 287 288 287 286 287 286 286 287 288 289 290 290 290 290 290 290 290 291 291 291 291 291 292 293 293 294 293 294 295
331 331 331 331 330 329 328 328 328 327 327 326 325 325 324 323 323 323 322 320 320 319 318 316 315 314 309 304 303 303 303 304 300 298 300 299 298 298 297 296 295 295 296 297 297 296 295 294 295 293 292 292 292 291 290 288 287 287 286 286 286 286 286 286 287 289 290 289 289 289 289 289 290 290 290 290 290 290 291 292 293 293 293 293 294
331 331 331 331 330 329 328 327 326 326 325 325 325 325 324 323 323 322 321 320 319 318 317 315 315 314 309 304 305 305 304 302 300 299 299 297 297 297 296 295 295 295 295 296 296 296 295 295 294 293 292 293 292 291 289 287 287 287 286 286 286 286 285 285 287 289 289 289 288 289 289 289 289 289 289 289 289 290 290 291 292 292 292 292 293
331 331 330 330 329 328 327 326 324 323 324 325 325 325 324 322 322 321 320 319 317 317 316 314 313 312 307 303 304 303 301 297 296 296 296 296 297 296 294 296 296 295 294 294 295 295 295 295 293 293 293 293 292 290 288 287 287 287 286 286 286 285 285 285 287 288 288 288 288 288 288 288 288 289 288 288 288 289 290 290 291 291 291 291 292
331 330 329 329 328 328 327 325 324 323 323 324 324 323 322 321 321 320 319 317 316 315 313 312 311 308 304 301 299 297 295 293 293 293 293 294 295 292 292 295 296 297 295 294 293 294 295 294 293 293 293 292 291 289 287 287 287 287 286 285 285 285 285 285 287 287 287 287 287 288 288 288 288 288 288 288 288 288 289 290 290 290 290 291 291
330 330 329 329 328 327 327 326 325 324 324 323 323 322 321 320 319 319 318 316 315 313 310 308 307 303 299 297 295 293 293 292 292 292 291 291 291 290 291 292 293 296 297 295 294 293 294 293 291 292 293 291 290 287 287 287 287 287 286 285 285 285 285 285 285 286 286 287 287 287 287 287 287 287 287 287 287 288 289 289 290 290 290 290 291
330 329 328 328 328 327 327 326 325 324 324 323 322 321 320 320 318 317 317 315 313 310 307 305 302 299 296 294 293 293 292 291 291 291 290 290 290 289 290 289 290 293 294 296 297 293 292 292 290 291 291 290 288 287 287 287 286 286 285 285 285 285 284 284 284 285 285 286 286 286 286 286 286 286 286 286 287 288 288 289 289 289 290 290 290
329 329 328 327 327 326 326 326 325 324 323 322 322 321 320 319 317 315 314 313 310 308 305 303 298 296 294 293 293 292 291 291 290 290 289 290 289 289 289 288 289 290 290 293 296 293 291 290 290 290 290 289 288 287 286 286 286 286 285 284 285 285 284 284 284 284 284 285 286 286 285 286 285 286 286 286 286 287 288 288 288 288 289 289 290
329 329 328 327 327 326 325 325 325 323 322 321 321 321 320 318 316 314 312 310 308 305 303 300 296 293 293 293 292 291 291 290 290 289 289 289 289 289 289 288 288 289 288 290 293 291 289 289 289 289 289 287 287 286 286 286 286 285 284 284 285 284 283 283 284 283 283 283 285 285 285 285 285 285 285 285 286 286 287 287 288 288 288 289 289
329 328 328 327 326 325 324 324 324 323 321 321 320 320 319 317 315 313 311 308 306 303 300 296 293 292 292 292 291 291 290 290 289 289 289 289 289 288 288 288 288 288 288 288 289 289 288 288 288 287 287 287 286 286 286 286 285 284 284 284 284 283 283 283 283 283 283 283 284 284 284 283 284 284 284 284 285 286 286 287 287 287 288 288 288
328 328 327 327 325 324 323 323 323 322 321 321 320 320 319 316 314 311 308 306 303 299 296 294 292 292 292 292 291 290 289 289 289 289 289 288 288 288 288 287 287 288 288 287 287 287 287 287 287 287 287 286 286 286 286 286 285 284 284 284 283 283 283 283 283 283 282 282 283 283 282 282 282 283 283 284 284 285 285 286 286 286 287 288 288
328 327 327 326 325 323 322 322 322 321 321 320 319 319 318 316 314 310 306 305 302 297 294 293 292 291 291 291 290 290 289 289 289 288 288 288 288 288 287 287 287 287 287 286 286 286 286 287 287 286 286 286 286 285 285 285 284 284 283 283 283 282 283 283 282 282 282 281 282 281 281 281 281 282 282 283 283 284 285 285 285 286 286 287 287
327 327 326 326 325 323 322 321 321 321 320 318 318 317 317 316 314 309 305 304 301 296 293 292 292 291 291 290 290 289 289 289 288 288 288 288 288 288 287 286 286 286 286 286 286 286 286 286 286 286 285 286 286 285 285 285 284 283 283 282 282 282 283 283 282 281 281 281 281 281 281 281 281 281 281 282 283 283 284 284 284 285 286 286 286
327 326 326 325 324 323 321 321 321 321 319 318 318 317 316 316 314 309 304 302 298 294 292 292 292 292 291 290 290 289 289 289 288 288 288 288 288 287 287 286 286 286 285 285 286 286 286 286 286 286 285 285 285 284 285 284 283 283 282 282 282 282 282 283 282 281 281 280 280 280 280 281 280 280 280 281 281 282 283 283 283 284 285 286 286
326 326 325 324 323 322 321 321 320 319 318 317 317 317 316 315 312 306 302 299 295 293 292 291 291 291 291 290 290 289 289 289 288 288 288 288 288 287 287 286 286 286 285 285 286 286 286 286 286 286 285 285 284 284 284 283 282 282 282 281 281 282 281 282 282 281 281 280 280 280 280 280 279 280 280 280 280 281 281 281 282 283 284 285 286
326 325 324 323 322 322 321 321 320 318 316 316 316 315 315 314 310 303 298 296 293 292 291 291 291 291 290 290 289 289 289 289 289 288 288 288 287 287 287 286 286 285 285 286 286 285 285 285 285 285 285 284 284 284 283 282 282 282 281 281 281 281 281 280 281 281 280 280 280 280 280 279 279 279 279 279 280 281 281 281 281 283 284 285 285
324 324 324 323 321 319 318 319 319 317 316 316 315 315 314 312 308 301 296 294 292 291 290 290 290 290 289 289 289 289 289 288 288 288 288 288 287 287 287 286 286 285 285 286 286 285 285 285 285 285 284 284 283 283 283 282 282 282 281 280 280 280 280 280 280 280 279 280 280 280 280 279 279 279 279 279 280 281 281 281 281 282 283 284 284
322 322 322 321 319 317 315 315 316 316 316 316 316 315 314 310 306 299 294 293 292 290 290 289 289 289 289 289 288 288 288 288 288 288 287 287 287 287 287 286 286 285 285 286 285 284 284 285 284 284 283 283 283 283 282 282 281 281 280 279 279 279 279 279 280 280 279 279 279 280 280 278 278 278 278 279 279 280 281 281 281 282 283 283 284
319 319 319 318 317 316 314 313 313 314 314 314 315 315 313 310 305 298 294 292 291 290 290 289 288 288 288 288 288 288 288 288 288 287 287 287 287 287 287 286 286 286 285 285 285 284 284 284 283 283 283 282 282 282 282 282 281 281 280 279 279 279 278 278 279 279 279 278 278 279 280 278 277 278 278 278 278 279 280 280 281 282 282 283 283
316 316 315 314 313 313 313 312 312 312 313 314 315 314 311 308 304 298 293 292 291 290 290 289 289 288 288 288 288 288 288 287 287 287 286 286 286 286 286 286 285 285 285 285 284 284 284 283 283 283 282 282 282 282 282 282 281 280 279 279 279 279 278 278 278 279 279 278 276 277 279 278 277 277 277 278 278 278 279 279 280 281 282 282 282
314 313 312 312 311 311 310 310 309 310 312 314 315 314 310 306 302 297 293 292 291 290 289 289 289 288 288 288 288 287 287 287 287 286 286 286 286 285 285 285 285 285 285 285 284 284 284 283 283 282 282 281 281 281 281 281 280 279 278 278 279 278 278 277 277 277 278 277 276 276 278 279 277 276 277 278 278 278 279 279 280 281 281 281 281
312 311 311 310 309 309 309 308 308 308 310 312 312 311 308 304 299 295 293 292 291 290 289 289 289 289 288 288 287 287 287 287 287 286 286 286 285 285 285 285 285 285 284 284 284 284 283 283 282 282 282 281 281 281 281 280 279 278 278 278 278 278 277 277 277 277 277 277 276 275 277 278 277 276 277 277 278 278 279 279 279 280 280 280 280
310 310 309 309 308 308 308 307 307 307 310 311 309 307 304 301 296 293 292 291 290 290 289 289 289 289 289 288 288 288 287 287 286 286 286 286 285 285 285 285 285 284 284 284 284 283 283 283 282 282 282 281 281 281 280 279 278 278 278 279 278 277 277 276 276 276 277 276 275 275 276 277 277 275 276 277 277 278 279 279 279 279 279 279 279
308 308 307 307 307 306 306 306 306 308 309 309 307 304 301 297 294 292 291 290 290 289 289 288 289 289 289 288 288 288 288 287 287 286 286 286 285 285 285 285 285 285 284 284 283 283 283 283 282 282 282 281 280 280 279 279 278 278 278 278 278 277 276 276 276 276 277 276 275 275 275 276 276 275 276 276 277 278 279 278 278 278 278 278 278
306 305 305 305 305 304 304 304 306 307 307 305 303 301 298 294 292 290 290 289 289 288 288 288 288 288 288 288 288 288 287 287 287 286 286 285 285 285 285 285 285 284 284 284 283 283 283 282 282 281 281 280 280 280 279 279 279 279 278 278 277 277 276 275 275 275 276 276 276 275 275 275 275 275 275 276 276 277 278 278 277 278 278 278 278
304 304 304 304 304 303 303 303 304 306 306 304 301 298 295 292 291 290 289 289 288 288 287 288 288 288 288 288 288 287 287 287 286 286 285 285 285 285 285 285 284 284 284 283 283 283 282 282 281 281 280 280 280 280 280 279 279 279 278 277 277 276 275 275 274 274 275 275 275 275 275 275 275 274 274 275 277 277 277 277 277 277 278 278 277
304 304 303 302 302 302 303 304 305 306 306 304 301 297 293 291 290 290 289 288 287 287 287 287 287 287 287 287 287 287 287 286 286 286 285 285 285 285 285 285 284 284 284 283 283 283 282 281 281 281 281 281 280 280 279 279 278 278 278 277 276 276 275 274 274 274 274 275 275 275 275 275 274 274 273 274 276 276 277 277 277 277 277 277 277
303 302 301 301 301 301 302 303 302 303 303 301 298 295 291 289 289 289 288 288 287 287 287 286 286 286 286 287 286 286 286 286 286 285 285 285 285 285 285 284 284 284 284 283 283 283 282 282 281 281 281 280 280 280 279 279 278 278 277 277 276 275 274 274 274 273 274 275 275 274 274 274 273 273 273 273 274 275 276 277 277 277 277 277 277
Wind_Speed
10 9 10 9 8 9 7 5 6 4 3 2 1 3 1 1 2 3 3 4 6 6 7 7 6 4 4 7 7 6 7 6 6 7 6 7 8 10 12 13 14 15 14 13 12 13 13 13 14 15 16 16 17 18 18 19 20 21 21 22 22 22 22 22 23 24 25 26 27 28 29 30 31 32 32 33 33 34 34 34 35 35 36 37 37
9 9 9 9 10 10 8 6 6 3 2 3 0 0 1 2 3 4 4 6 6 6 7 6 5 3 4 7 6 6 6 5 6 6 4 5 7 9 10 12 14 14 15 15 14 14 14 14 15 16 17 17 18 18 19 20 21 21 22 22 22 22 23 23 24 25 27 28 29 30 31 32 32 33 33 33 34 34 34 34 35 35 36 36 36
10 10 9 10 9 9 9 6 5 4 2 3 3 3 3 3 4 5 6 6 5 5 5 5 3 3 5 6 5 5 5 5 4 4 5 6 6 8 9 11 12 13 16 16 15 14 15 15 15 17 17 18 18 19 19 20 21 21 22 22 22 23 24 25 26 28 29 29 30 31 32 33 33 33 33 33 33 33 33 33 33 33 33 33 33
10 10 9 9 8 7 8 5 4 4 4 4 5 5 5 5 5 6 5 4 3 3 3 3 2 3 4 4 3 4 3 2 2 4 6 6 5 6 7 9 9 11 14 15 15 15 15 15 15 17 18 19 19 19 20 20 21 21 21 22 22 24 26 27 28 29 29 30 31 31 32 32 33 32 32 32 32 32 31 31 31 31 31 31 32
11 12 10 9 8 7 8 6 5 5 6 5 5 4 4 4 4 5 4 4 4 3 2 2 2 3 3 3 3 3 2 1 3 4 6 6 6 6 4 5 7 10 11 13 14 14 14 15 15 17 18 19 19 20 20 21 21 22 22 22 23 25 27 28 28 29 30 30 31 31 31 31 31 30 30 30 30 30 30 30 31 31 31 32 32
11 12 12 10 9 9 9 7 6 7 7 5 4 3 4 4 4 4 2 4 4 2 2 1 1 2 3 3 3 3 2 1 4 6 7 6 6 4 4 6 8 9 9 10 12 13 14 15 15 17 18 18 19 20 20 21 22 23 22 23 24 26 27 28 29 29 29 30 30 29 29 29 29 29 29 29 29 29 30 30 31 31 31 32 33
11 11 12 12 10 9 9 8 7 8 7 5 5 5 5 5 4 3 2 3 3 1 1 2 1 1 2 4 3 4 3 2 5 7 7 6 6 5 7 9 9 8 7 7 9 12 14 15 15 16 17 17 18 19 20 21 23 23 24 24 26 27 28 28 28 28 27 28 28 28 28 27 27 28 28 28 28 29 30 30 31 32 32 33 34
13 12 11 12 11 10 8 8 9 9 7 6 6 6 5 6 4 3 3 2 2 0 1 2 2 2 2 2 2 3 3 2 5 7 6 6 7 7 8 9 8 8 7 6 8 11 13 14 14 14 15 15 16 18 19 21 23 24 25 25 26 27 27 27 26 26 26 27 27 27 27 27 27 27 27 28 29 30 30 31 32 32 33 34 34
16 15 13 12 11 11 9 9 10 10 8 6 6 5 5 5 4 3 3 3 2 2 3 2 1 2 1 0 1 2 2 2 6 5 5 7 8 6 6 7 8 8 8 7 8 10 11 12 12 12 13 14 15 17 19 21 22 24 25 26 27 27 26 25 25 25 26 27 27 27 27 26 27 27 28 29 30 30 31 32 33 34 34 35 36
17 17 16 13 12 12 11 10 10 9 8 8 7 6 7 7 5 4 4 3 4 4 3 3 2 2 2 1 2 2 3 5 7 5 6 9 7 6 5 6 7 8 8 8 9 10 10 10 11 12 13 13 14 16 19 21 22 24 26 26 26 27 26 25 25 26 27 27 27 28 28 28 28 29 29 30 31 31 32 33 34 35 36 36 38
17 17 16 15 13 13 13 11 10 9 9 9 8 8 9 9 8 6 5 5 6 5 3 2 4 3 3 3 4 3 5 7 6 6 8 7 6 6 6 6 7 8 8 9 9 10 10 10 12 12 13 13 13 15 19 22 23 24 26 26 26 26 26 24 24 26 28 28 28 28 29 29 29 29 30 31 32 32 33 34 35 36 37 38 39
17 16 15 15 14 14 13 13 12 11 11 10 10 10 11 10 8 7 6 6 6 5 2 2 3 4 3 4 4 4 7 8 6 7 7 6 5 7 6 6 7 9 9 8 9 10 10 11 12 13 13 13 12 14 18 22 24 25 26 26 26 26 26 25 25 27 29 29 29 28 28 28 29 30 30 31 32 34 35 35 36 37 38 39 40
18 17 16 15 15 15 14 14 14 13 13 12 11 11 12 9 7 8 8 7 5 4 2 3 5 4 4 7 4 6 9 7 6 7 7 5 6 8 7 6 7 9 8 7 9 9 9 11 12 13 13 13 13 13 16 21 24 25 26 26 26 27 26 26 26 27 29 30 29 28 27 28 29 30 31 32 33 34 35 36 37 38 39 40 41
19 19 18 17 16 16 15 15 15 15 14 13 12 12 12 10 9 10 10 8 5 5 5 5 4 2 5 9 6 6 8 7 7 7 7 6 7 9 8 7 7 8 7 6 8 8 9 10 11 13 14 14 14 13 15 20 23 25 26 25 26 27 26 26 26 28 29 28 28 27 28 29 29 30 31 32 34 35 36 37 38 39 40 41 42
22 22 20 18 17 17 16 15 16 16 15 14 14 14 13 11 11 11 11 8 6 7 8 6 4 2 2 5 4 5 4 5 8 7 7 6 7 9 8 6 7 7 6 6 7 8 10 11 11 12 13 13 12 12 14 19 23 25 25 25 26 26 25 25 26 27 28 27 27 27 28 29 30 31 32 33 34 36 37 38 39 40 41 42 43
24 24 22 21 20 18 17 16 17 17 16 16 16 15 13 13 12 12 11 9 9 10 10 8 6 4 2 2 4 5 2 5 10 9 8 7 6 9 8 6 6 6 6 7 7 7 10 11 11 11 11 11 11 13 15 19 23 24 24 25 25 25 25 25 27 27 26 26 26 28 28 29 31 32 33 34 35 36 38 39 40 40 41 42 43
25 25 24 23 22 21 19 18 18 18 17 18 18 16 15 15 14 14 13 12 12 13 12 10 8 9 7 2 4 3 2 8 12 8 10 10 5 6 8 6 6 6 5 6 6 6 9 11 10 10 10 10 12 14 17 20 23 24 23 24 25 24 25 26 27 27 26 26 27 28 29 30 32 32 33 34 36 37 38 39 40 40 41 42 43
26 26 25 24 24 24 22 20 20 20 19 19 19 18 17 17 17 15 13 12 12 12 12 10 8 11 12 6 4 2 4 11 9 4 8 10 8 5 5 5 7 6 4 4 5 6 7 11 10 10 9 9 13 15 18 21 23 23 22 23 24 24 25 26 28 28 28 28 29 29 30 30 31 32 33 34 36 37 38 39 39 40 41 41 42
28 28 27 26 26 25 25 24 23 22 21 21 20 19 18 18 18 16 14 14 14 12 11 10 8 10 12 10 6 4 7 9 6 5 5 6 8 8 3 3 5 6 4 2 2 5 5 9 11 10 9 9 13 16 18 21 22 22 21 22 24 24 25 27 28 29 29 29 28 29 29 30 31 32 33 34 36 36 37 38 39 40 40 39 40
30 30 29 28 27 27 27 26 25 23 22 22 21 20 19 19 19 16 16 17 18 15 11 11 11 10 11 11 8 7 8 7 8 8 5 4 6 7 5 0 0 3 4 3 1 3 4 7 11 10 9 9 12 16 19 22 22 21 21 23 24 24 25 27 28 28 28 28 28 27 28 29 30 32 33 34 35 36 37 38 39 40 40 39 39
31 31 30 29 28 28 28 28 27 25 24 23 23 22 21 20 19 18 20 21 19 17 14 13 13 11 12 12 9 8 8 7 8 8 5 5 4 6 7 2 3 4 1 2 3 1 4 5 10 10 9 10 13 16 19 23 23 21 21 23 23 23 25 27 27 27 27 27 27 26 27 29 30 31 33 34 35 35 36 37 38 39 39 39 39
32 32 31 30 29 29 29 30 29 28 26 24 24 24 23 21 20 21 23 22 18 16 15 14 13 14 15 16 14 12 9 6 7 8 6 5 3 4 6 5 5 5 4 2 3 5 2 3 9 11 11 11 13 16 20 23 23 20 21 23 22 23 25 26 25 25 26 25 25 26 27 29 30 31 32 33 34 34 35 36 37 37 38 38 38
33 33 33 33 32 31 31 31 30 29 27 25 24 24 24 22 22 23 23 20 17 15 15 14 14 15 16 17 18 15 11 8 10 11 7 5 4 3 5 5 4 4 3 3 2 5 1 1 6 11 12 12 13 16 20 23 22 19 22 23 22 22 24 24 23 23 24 23 24 26 27 29 30 31 31 32 33 33 34 34 35 37 37 38 38
34 35 35 35 35 33 32 32 31 29 28 26 24 23 24 23 22 24 23 20 18 17 17 18 19 17 16 16 16 14 10 9 11 12 9 7 6 4 4 3 3 3 2 4 6 4 1 3 4 9 12 11 13 15 20 23 20 18 22 23 21 22 23 22 22 22 22 22 24 25 27 28 29 30 31 31 32 33 33 33 35 36 37 38 38
36 37 38 38 37 35 33 32 31 29 28 26 24 23 24 24 24 26 25 22 20 18 18 21 23 21 19 17 16 15 12 11 11 11 10 9 7 5 3 1 3 4 3 5 9 6 4 5 4 7 10 10 11 14 20 22 18 19 22 22 20 22 23 22 21 22 21 21 23 24 26 28 28 29 30 31 31 32 32 33 34 36 37 37 38
38 39 39 38 37 36 33 31 29 28 27 25 25 26 26 26 26 26 25 21 20 20 20 22 24 23 22 20 19 17 15 14 14 13 12 9 8 6 3 0 3 6 5 4 7 7 5 6 4 7 9 9 9 14 20 19 17 18 22 22 20 22 23 22 21 21 20 21 22 24 26 27 28 28 29 30 30 31 31 32 33 35 36 36 38
40 39 38 38 37 36 32 30 28 27 26 25 26 28 29 27 26 25 23 20 20 22 22 24 25 24 24 22 20 19 17 15 15 15 13 11 9 7 5 3 1 3 3 2 4 5 5 6 2 6 7 7 9 16 19 17 16 17 21 21 19 21 22 21 19 19 19 20 21 23 25 27 27 27 28 29 29 30 30 31 32 34 34 35 38
39 38 38 38 38 36 34 31 29 28 28 28 27 29 29 27 25 24 22 20 22 24 24 25 26 25 25 23 20 19 17 16 15 14 13 12 10 9 8 7 3 1 1 2 1 2 4 4 1 4 6 7 12 17 17 15 15 16 19 19 17 18 21 20 18 17 18 19 21 23 25 26 27 27 27 28 28 28 29 30 32 33 32 34 38
37 38 39 38 38 37 35 33 31 31 31 30 29 29 28 26 25 24 22 21 23 25 25 25 26 26 25 22 20 19 18 16 15 14 13 11 10 9 8 8 8 5 2 1 2 3 5 1 1 3 6 10 14 16 14 13 14 14 17 18 15 16 19 19 16 16 18 19 21 23 25 26 26 26 27 27 27 27 28 29 31 32 32 35 38
35 36 37 38 38 37 36 34 33 33 33 32 31 31 29 26 25 24 23 23 25 26 26 27 27 26 25 23 20 19 18 17 15 14 13 11 10 10 9 8 9 7 6 4 2 4 6 0 3 2 7 12 15 14 12 12 13 13 16 16 13 14 18 18 15 15 17 19 21 24 25 25 25 26 26 26 26 27 27 28 30 31 33 35 37
34 35 36 37 37 38 36 36 35 35 34 33 32 32 29 26 25 24 24 25 26 27 26 27 28 26 25 23 21 19 18 17 15 14 13 12 10 10 9 9 9 8 8 6 2 3 4 3 4 5 9 12 13 13 11 12 13 14 16 14 11 14 18 17 16 16 18 20 22 24 24 25 25 25 25 25 26 26 27 28 28 30 33 35 37
33 34 35 36 38 38 37 36 36 35 34 33 32 31 28 26 24 24 25 26 27 27 27 28 27 26 25 23 21 20 18 17 16 14 13 12 10 10 9 8 8 8 7 8 6 5 4 4 5 6 8 10 11 12 12 13 13 15 16 13 11 16 18 18 18 19 20 20 22 23 24 25 25 25 25 24 25 26 27 27 28 30 32 34 36
32 33 34 36 38 39 37 37 36 36 35 34 32 30 27 25 24 24 25 26 27 28 29 28 27 26 25 23 21 20 18 17 16 15 13 12 10 9 8 7 7 7 6 7 8 7 6 4 5 6 7 9 11 11 12 12 14 17 16 12 12 17 18 20 20 21 21 21 21 22 23 25 25 25 25 24 24 25 26 26 27 30 32 34 35
31 32 33 36 38 38 37 37 37 36 35 35 34 31 29 26 24 24 25 27 29 30 30 30 28 27 25 23 22 20 19 17 16 14 13 12 11 9 9 8 7 7 6 6 6 6 6 6 7 7 8 10 11 11 12 12 15 18 14 12 15 16 18 20 21 22 22 22 22 23 23 23 23 25 25 24 24 24 25 26 27 29 32 34 35
31 32 32 35 37 37 37 37 37 36 35 35 34 32 30 27 26 26 27 29 31 32 31 31 29 27 25 23 22 21 19 18 16 15 13 12 11 9 8 8 8 7 6 6 6 6 6 7 8 9 10 11 11 11 11 11 15 17 12 12 15 16 18 21 21 22 21 21 23 26 24 21 22 24 24 23 23 23 24 25 26 29 32 34 35
31 31 32 34 37 37 37 37 37 37 37 36 34 31 29 28 27 28 29 31 33 32 31 31 30 28 26 24 23 21 20 18 17 16 14 12 11 9 8 8 8 7 6 5 4 4 4 5 8 10 10 10 10 11 10 12 16 15 11 14 16 16 18 22 22 21 20 20 24 26 23 21 22 23 23 23 23 23 24 25 26 29 31 33 34
31 31 31 33 36 37 38 38 38 38 39 37 35 32 30 27 27 30 32 32 33 32 31 31 29 27 26 24 23 22 20 19 18 16 15 13 11 10 9 8 7 6 5 4 3 3 3 6 9 10 9 8 9 10 9 13 17 14 13 17 18 16 20 23 22 21 19 20 25 26 22 21 23 22 22 23 22 23 24 24 26 29 31 32 33
31 31 32 34 35 37 37 38 38 38 39 38 36 34 31 29 29 31 33 34 33 32 31 30 28 26 25 23 23 22 21 19 18 17 15 13 12 11 10 9 7 6 5 4 3 2 3 5 8 10 9 8 9 9 10 14 16 14 16 21 20 18 22 24 23 21 19 21 26 26 23 22 24 22 21 22 21 21 22 23 25 28 30 31 32
30 31 32 34 35 36 38 38 38 38 38 37 35 33 31 30 31 33 34 34 33 32 31 29 27 25 24 23 22 21 20 19 17 16 15 14 12 11 10 9 8 7 6 5 4 3 4 5 7 8 8 8 8 9 11 14 14 12 17 24 24 22 23 24 23 19 18 23 27 25 22 22 23 23 21 20 19 19 21 22 24 27 29 29 30
30 31 32 33 34 35 37 38 39 39 38 37 35 32 30 31 33 35 36 35 34 33 31 29 27 26 24 23 22 21 20 18 17 15 14 13 12 12 11 10 9 8 7 6 5 5 5 7 7 7 7 7 7 8 12 15 15 15 18 22 22 22 22 23 21 16 17 24 28 25 23 23 24 25 23 21 18 18 19 22 25 27 27 28 29
28 30 31 32 33 34 35 36 37 38 38 38 36 33 32 33 35 36 37 36 35 34 32 30 28 27 25 24 23 22 21 19 17 15 14 13 12 11 11 10 10 9 8 7 6 6 7 8 7 5 6 7 7 9 12 14 14 15 19 20 19 19 20 21 18 13 16 25 29 26 24 24 26 27 26 23 19 18 18 22 26 27 26 27 28
27 28 29 29 31 33 34 35 36 38 38 37 35 33 32 34 36 38 37 36 35 34 33 32 30 28 26 25 24 23 21 19 18 16 15 14 13 11 10 9 9 9 8 7 7 8 9 8 5 4 5 7 6 7 10 11 12 15 18 19 19 20 20 20 17 15 18 26 29 27 24 23 24 27 28 25 21 18 18 21 24 25 25 26 27
24 25 26 27 28 31 33 35 37 37 38 36 34 32 32 34 37 40 39 37 36 35 34 33 32 30 29 27 25 24 22 20 19 17 16 15 14 12 11 10 9 9 8 8 9 9 8 7 5 5 6 7 6 6 8 10 12 15 16 16 17 19 19 17 16 16 21 26 27 27 25 22 22 26 28 25 22 19 18 19 22 24 24 25 26
22 22 23 25 26 29 31 33 35 36 37 36 34 32 33 35 38 40 39 38 37 36 34 33 32 31 30 29 27 25 23 21 20 19 18 16 15 13 12 11 10 10 9 8 9 8 7 7 6 6 7 6 5 5 7 9 12 14 14 14 14 15 16 15 14 18 23 25 23 25 25 21 21 26 28 25 22 18 16 18 21 23 24 24 25
20 21 22 23 25 28 31 32 33 34 35 34 33 32 33 36 38 40 39 38 38 36 35 34 33 32 31 30 28 26 24 23 21 20 18 17 16 14 13 12 11 10 10 9 9 8 7 7 7 7 6 5 5 5 6 9 12 13 13 14 13 14 15 15 16 20 23 22 20 23 24 21 23 28 28 25 22 17 14 17 20 22 23 23 23
21 22 22 23 25 28 31 32 32 32 32 32 31 31 33 36 38 39 38 37 37 36 35 34 33 32 31 29 29 27 26 25 23 21 19 18 17 15 14 13 12 11 10 9 8 7 7 8 8 7 6 5 6 7 9 10 10 11 12 14 14 15 16 16 18 20 19 16 16 18 19 20 25 28 27 25 23 16 12 16 19 21 23 24 24
20 21 22 24 25 27 29 31 30 30 30 30 29 31 33 36 37 37 37 36 36 35 35 34 32 31 30 29 28 28 27 25 24 22 20 18 17 15 14 13 12 10 9 8 8 8 8 8 8 7 7 8 9 9 10 10 10 10 12 14 16 16 16 17 19 18 14 13 12 11 14 20 26 27 26 26 23 14 10 15 20 21 23 24 24
18 20 21 23 24 26 28 29 29 29 28 27 28 31 34 36 36 35 35 35 35 35 34 33 32 31 30 29 28 27 26 25 23 21 20 18 17 16 14 12 11 10 9 9 8 9 9 9 9 9 9 9 8 8 8 9 9 11 13 15 15 13 13 16 18 16 15 13 9 8 13 21 25 25 26 27 21 12 10 15 19 21 23 24 23
17 19 20 22 23 25 27 28 27 27 27 26 28 31 35 36 36 36 35 34 34 34 34 33 32 32 30 29 28 27 26 25 23 21 20 19 18 16 14 13 12 12 12 12 11 11 11 11 12 12 11 9 8 8 8 8 8 10 13 14 11 9 11 13 13 14 17 13 7 7 14 19 22 23 24 26 20 11 10 16 18 20 23 23 22
17 18 19 21 22 24 26 27 26 26 26 26 28 32 36 37 37 37 36 35 34 33 33 33 32 32 30 29 28 27 26 24 23 21 21 20 19 17 16 14 15 15 14 14 13 13 13 13 13 12 11 10 9 10 10 9 8 9 11 11 9 8 9 9 9 15 18 10 5 8 15 17 21 22 22 24 18 9 10 17 19 20 22 23 22
16 18 19 20 22 23 24 25 25 25 26 26 29 33 36 37 38 38 37 35 34 33 33 33 32 31 31 30 30 28 26 24 22 21 22 21 19 18 17 16 17 16 14 14 14 13 14 13 13 12 10 10 10 10 11 11 11 11 11 10 8 8 8 8 9 11 11 4 3 11 16 16 17 20 20 18 12 9 14 19 20 19 21 22 22
Wind_Direction
205 199 185 177 185 182 179 172 168 194 173 149 76 83 35 324 301 299 311 330 337 336 328 334 352 345 322 353 10 18 21 26 18 24 30 6 1 2 8 18 21 24 28 30 33 36 42 47 49 49 48 48 49 50 49 49 48 46 44 41 38 35 32 29 25 22 19 16 14 12 10 9 7 6 4 2 1 359 357 355 353 351 349 347 345
197 191 187 185 194 182 171 174 173 194 154 127 200 165 273 289 286 273 277 304 320 332 332 337 356 352 344 1 10 18 25 32 24 18 26 23 13 6 10 16 19 29 35 35 39 43 47 52 58 57 54 54 54 54 53 52 49 46 43 40 37 33 29 26 22 20 17 14 12 10 9 7 6 4 2 0 359 357 354 352 350 348 346 344 342
198 189 190 192 197 180 171 178 165 174 159 153 224 224 228 263 288 294 299 306 308 319 333 340 348 348 346 358 16 26 31 50 40 2 27 55 32 13 18 17 16 29 34 33 41 47 52 60 67 66 61 59 58 57 54 52 48 44 41 38 35 29 26 23 20 18 15 12 10 8 7 5 4 2 360 358 356 354 351 348 346 344 341 339 337
198 187 191 192 189 169 171 185 161 182 204 210 230 232 237 257 285 300 311 325 329 331 341 341 325 326 336 348 14 31 45 60 22 10 44 59 52 43 35 23 20 32 31 30 41 52 61 66 70 71 67 63 60 57 54 50 46 43 41 36 31 26 23 21 18 16 13 11 9 7 5 3 1 359 357 355 352 350 347 344 342 340 338 336 334
196 185 186 189 184 174 178 194 186 194 210 222 245 255 254 255 275 287 302 317 321 324 329 344 342 339 344 347 12 45 68 33 3 41 65 58 68 74 48 35 39 41 31 27 44 59 68 68 70 74 72 67 62 58 54 48 43 41 38 33 28 24 21 19 16 14 11 9 7 5 3 1 358 356 354 351 348 346 344 342 340 339 337 336 334
203 195 185 182 190 191 188 199 203 210 223 242 265 271 273 265 265 272 285 303 298 297 312 335 8 6 7 8 44 70 75 44 25 59 81 69 75 71 59 85 71 55 38 31 51 65 69 70 72 77 74 68 63 58 53 45 40 37 34 30 25 22 19 17 15 13 10 7 5 3 0 358 355 353 351 348 346 345 343 341 340 338 337 335 334
203 211 191 181 195 202 196 204 211 222 234 244 253 253 258 249 243 244 238 290 305 322 336 334 26 48 27 21 40 74 82 58 42 71 91 85 80 52 58 87 83 72 61 45 62 69 72 73 73 74 70 64 60 54 49 41 36 32 30 26 23 20 18 15 13 10 6 4 3 1 359 356 352 350 349 347 346 345 343 342 340 339 337 335 334
193 209 200 188 196 204 210 216 212 224 234 234 244 246 238 226 224 234 224 246 294 160 277 316 48 43 20 22 23 78 105 70 65 84 102 102 89 58 52 74 77 77 78 74 77 74 74 75 71 68 63 57 53 48 42 36 33 29 25 23 21 19 16 13 10 7 4 3 2 0 358 355 351 350 348 348 347 345 344 342 340 339 337 336 334
194 202 201 197 199 203 215 223 220 226 227 225 238 233 226 230 222 223 222 220 252 250 245 251 68 11 320 25 33 100 158 106 97 106 108 103 96 78 60 67 71 71 76 89 92 83 78 75 69 61 54 48 44 41 36 31 29 26 23 22 20 18 15 11 8 5 4 4 2 360 357 354 352 351 350 349 348 346 344 342 340 339 338 336 334
200 202 200 200 205 211 215 219 228 229 216 216 224 216 218 226 211 205 219 221 234 240 247 245 190 230 268 170 134 150 143 110 118 131 105 92 85 84 82 78 76 71 77 91 97 93 84 75 62 50 43 37 34 35 31 27 26 24 22 20 19 17 13 10 7 4 4 4 2 359 357 355 354 353 352 350 348 345 343 342 341 339 338 336 334
205 206 205 203 207 218 218 216 226 223 214 216 215 219 227 227 222 222 225 226 234 245 283 271 177 214 255 168 160 171 137 121 132 130 110 100 82 87 99 99 88 78 80 91 98 94 85 73 57 47 41 33 28 29 27 23 23 22 19 18 17 16 13 10 6 4 5 3 1 359 357 356 355 353 351 349 347 345 344 343 341 339 338 336 334
207 209 210 208 209 218 220 217 223 218 213 216 215 224 233 234 235 234 224 217 237 260 304 281 210 233 226 151 165 176 143 131 134 125 122 122 95 94 102 104 100 88 82 89 97 90 77 67 54 45 42 37 29 22 20 19 19 18 16 15 16 14 11 9 6 4 4 2 0 359 357 356 355 352 350 348 347 346 344 343 341 339 337 335 334
210 212 212 211 209 217 221 216 220 219 212 214 220 222 224 227 224 222 217 204 226 254 268 279 265 249 166 138 139 152 140 134 140 142 148 137 97 100 102 99 107 97 85 89 93 84 71 60 49 41 38 38 35 20 11 12 14 14 13 12 13 13 10 8 6 3 2 1 360 358 357 355 354 352 350 349 347 346 344 342 341 339 338 336 334
213 213 213 213 209 213 219 215 217 220 214 213 219 223 223 224 214 216 221 216 220 225 235 259 274 271 150 135 122 133 142 148 153 159 165 138 93 100 105 98 108 106 101 105 92 77 66 54 42 38 34 34 34 20 6 5 8 11 11 10 10 10 8 7 6 3 1 0 359 358 356 355 353 352 351 349 348 346 344 343 341 340 338 336 334
214 214 213 213 213 212 216 218 217 218 216 211 216 224 227 228 224 220 221 226 224 215 227 231 221 276 162 151 150 140 150 173 163 163 170 140 89 94 106 104 108 113 121 124 102 75 61 50 39 36 33 31 28 16 6 3 5 9 9 8 8 7 6 5 4 2 360 360 358 357 355 354 353 352 351 349 348 346 344 343 341 339 337 335 333
216 217 214 213 216 215 215 218 217 218 218 212 216 224 225 224 225 219 211 216 218 208 214 217 209 218 201 180 172 150 186 195 163 160 170 154 96 86 99 112 114 111 121 129 117 86 61 49 39 35 31 27 20 9 6 4 5 9 8 6 6 5 4 5 3 1 360 359 358 357 355 354 353 353 351 349 347 346 343 342 340 338 336 333 331
217 218 219 217 216 217 216 216 215 216 216 216 217 221 224 221 219 219 211 208 211 203 206 215 216 218 220 209 165 160 203 169 152 158 172 166 144 94 88 108 122 110 111 128 136 109 63 46 38 35 27 19 11 6 5 5 6 7 6 5 4 3 5 5 3 1 0 359 358 357 356 355 354 352 351 348 347 345 342 340 339 336 334 332 333
219 219 220 219 218 216 216 217 217 217 217 220 220 218 224 220 214 219 212 203 208 204 207 216 216 221 226 224 211 213 161 153 145 153 170 169 176 154 92 98 122 115 105 120 147 137 71 41 34 33 26 11 5 4 4 4 4 4 4 4 3 3 6 4 2 1 360 359 357 356 355 354 353 351 350 347 345 343 341 339 337 334 333 334 335
220 219 219 219 219 217 216 218 219 220 220 221 220 219 222 216 211 217 209 202 211 214 213 210 204 216 222 220 223 200 159 160 158 147 155 171 184 186 167 88 115 113 101 99 141 147 95 39 28 29 24 6 359 0 2 1 1 2 2 2 3 4 4 2 1 1 359 359 358 355 354 353 351 350 348 346 344 342 340 338 335 334 335 336 335
218 218 217 218 219 217 216 219 220 221 221 221 220 218 216 210 209 214 210 205 214 222 220 211 209 214 212 209 213 194 173 168 163 154 145 156 179 188 180 75 196 137 99 80 78 152 127 45 22 23 18 359 355 357 357 358 359 0 1 2 3 3 3 3 3 1 360 360 357 353 352 351 350 349 347 345 343 341 339 337 335 334 335 336 336
215 216 216 217 219 217 215 218 220 219 220 220 218 216 213 210 214 220 216 210 214 220 218 216 220 217 203 194 190 182 169 153 154 153 135 142 169 184 176 183 223 203 199 71 48 42 148 62 20 16 7 351 351 353 353 356 357 358 0 2 3 3 5 6 3 0 0 359 355 352 351 350 350 348 346 345 342 340 338 336 336 335 335 337 337
213 214 215 215 217 217 215 217 218 219 219 218 217 216 215 217 222 223 216 209 210 214 213 214 219 219 209 194 181 172 165 157 163 156 135 146 170 191 196 205 205 218 254 217 39 11 145 73 17 8 356 344 345 347 351 354 352 355 2 4 4 6 9 8 2 359 359 356 353 352 350 349 349 347 345 343 341 340 338 337 337 335 336 338 338
213 213 213 214 215 215 216 217 217 218 218 219 220 221 221 223 222 216 209 204 205 209 209 206 207 212 212 203 190 179 175 179 179 172 160 158 169 207 215 215 230 255 272 240 323 356 349 292 357 358 350 340 336 341 348 348 346 354 3 4 5 9 11 6 0 358 356 353 352 352 350 349 348 346 344 342 340 340 339 339 339 336 338 340 340
213 212 212 213 213 214 215 216 216 216 219 222 225 226 226 223 216 208 204 203 207 212 211 205 204 204 203 201 194 185 185 187 182 177 175 178 183 196 205 206 259 280 280 253 270 305 284 246 314 341 340 331 328 336 342 341 344 357 3 2 7 12 8 2 358 356 352 351 352 351 349 348 346 344 343 341 341 341 340 341 340 338 340 342 343
210 210 210 210 212 212 212 214 214 217 222 224 226 227 223 216 210 206 204 208 213 219 220 211 205 203 195 191 190 187 185 184 181 178 180 190 188 185 196 219 259 279 289 252 246 257 252 225 261 318 322 318 320 331 335 337 347 1 0 1 9 11 5 0 358 353 350 350 351 350 347 346 345 344 343 342 342 342 342 344 342 339 342 344 343
207 208 208 208 210 211 212 213 215 218 221 222 225 224 216 209 207 207 210 217 220 222 224 214 205 202 195 190 190 189 187 184 183 182 183 184 179 182 191 238 262 261 275 253 227 233 227 204 240 308 306 300 311 326 330 337 355 1 356 360 9 9 3 1 358 350 347 349 350 349 347 346 346 344 344 343 344 344 344 344 343 341 344 344 343
208 206 206 206 208 211 213 214 215 218 216 215 217 214 208 205 207 210 217 223 220 219 222 214 204 200 196 193 192 190 188 187 186 185 182 177 176 183 172 122 339 264 268 271 217 217 204 190 242 301 285 284 311 324 330 346 3 357 353 0 7 5 0 358 352 345 344 347 349 349 347 347 347 345 345 345 345 346 345 345 343 342 344 345 346
209 207 207 208 210 212 213 212 214 216 212 209 208 206 203 205 208 215 221 222 219 219 217 209 201 197 195 193 191 187 187 189 188 184 179 176 177 175 163 153 145 167 288 296 222 193 189 186 230 264 261 287 315 324 338 359 2 349 350 359 3 360 356 351 345 342 343 346 349 349 348 348 347 346 346 346 346 347 346 345 344 343 345 347 348
210 210 211 212 213 213 212 211 212 213 210 207 206 203 203 208 214 220 224 224 220 216 210 201 194 193 192 190 189 187 186 188 186 179 173 172 172 164 158 164 168 168 178 219 247 201 175 144 67 210 261 299 317 331 352 4 354 345 348 355 359 356 350 347 346 345 345 347 350 350 349 349 348 347 347 347 348 348 347 347 346 346 347 348 349
214 214 215 215 213 211 211 211 210 209 209 207 206 205 206 211 216 221 225 224 216 207 201 194 189 189 188 186 187 186 185 185 179 173 170 167 166 162 161 169 176 180 174 175 248 207 182 313 6 256 287 307 322 341 359 356 351 351 347 354 2 351 346 351 356 356 353 350 350 351 350 350 349 349 348 348 349 349 349 349 348 348 347 348 352
217 218 218 217 213 210 210 210 208 207 207 207 206 207 210 213 214 217 220 217 208 201 196 192 187 187 186 185 185 184 183 181 175 172 171 168 167 165 167 174 178 187 185 175 184 202 206 290 324 304 305 314 329 347 355 351 354 352 348 359 3 344 347 1 7 7 4 356 352 351 351 350 350 351 350 350 351 351 351 351 350 350 349 351 354
219 219 219 218 215 211 209 208 206 205 204 204 206 208 212 215 216 219 217 210 204 198 191 189 187 187 187 185 183 183 182 178 174 173 171 171 173 169 171 180 183 187 191 185 197 240 276 302 300 302 315 324 338 351 352 351 352 347 352 5 354 339 351 6 10 11 10 2 354 352 351 350 351 352 353 353 353 353 353 353 353 353 352 354 356
218 219 220 219 216 213 209 206 205 205 204 204 206 209 212 215 217 219 214 205 200 194 188 186 186 187 187 185 182 181 180 178 176 175 174 174 176 174 175 184 192 195 194 194 211 250 293 317 314 321 332 337 347 356 351 347 344 345 356 2 344 342 355 6 10 12 11 5 357 353 352 351 352 354 355 354 354 355 355 355 356 355 356 357 358
220 221 221 219 216 212 208 206 205 205 206 206 207 209 211 214 215 214 209 201 196 190 186 186 185 186 187 185 181 179 180 180 179 176 177 178 178 180 180 186 198 205 208 213 217 240 280 314 335 344 345 344 351 356 349 340 337 344 356 350 341 348 358 5 10 11 10 6 360 355 356 357 357 356 355 355 354 355 356 358 357 357 359 360 359
222 223 223 220 216 211 207 205 205 205 206 207 206 207 208 211 212 209 205 200 195 191 189 188 186 186 186 184 182 180 180 181 181 179 181 182 183 184 184 189 200 210 219 230 226 233 270 309 335 343 345 349 350 349 343 329 331 344 349 340 344 354 358 4 9 9 9 6 0 359 0 5 5 358 355 355 354 354 356 358 359 360 1 1 0
223 223 223 222 218 212 207 204 204 205 206 205 205 206 207 209 212 208 202 199 196 194 193 190 188 187 187 185 182 182 183 183 183 182 183 186 187 188 191 197 203 213 222 231 235 236 261 296 319 334 343 343 338 341 336 321 329 344 341 339 353 358 357 4 7 5 7 5 1 1 3 8 9 1 356 355 354 355 356 357 359 0 1 1 1
222 222 222 221 217 213 209 206 206 207 206 205 204 205 206 209 212 208 201 198 197 197 196 194 192 190 189 187 184 183 185 185 185 185 186 189 190 190 197 204 206 215 222 227 234 244 266 287 304 322 334 330 329 339 334 322 331 341 339 346 359 359 354 2 6 4 6 3 0 3 5 9 10 5 359 356 355 356 357 358 360 0 360 0 2
221 223 224 222 218 214 211 209 208 208 205 203 204 204 204 206 208 205 200 197 197 197 196 195 194 193 191 188 186 186 188 188 187 187 188 191 194 195 200 206 210 214 218 217 218 243 274 284 292 303 314 322 332 339 329 325 333 340 342 349 357 358 354 357 2 5 6 359 358 3 7 7 8 7 3 359 358 357 357 359 360 0 0 360 1
225 225 224 222 220 217 214 212 211 209 204 202 204 203 204 205 204 200 197 195 195 195 196 195 194 193 191 189 188 189 190 190 190 190 190 193 196 199 202 206 211 212 210 206 210 239 264 270 274 285 301 320 334 330 319 326 338 347 351 351 351 351 351 351 354 0 2 356 356 3 10 6 4 7 6 3 5 4 3 5 2 360 1 0 1
227 227 226 225 221 217 213 212 211 208 204 203 204 203 205 205 202 198 195 193 193 193 193 194 193 193 191 189 191 192 192 193 193 193 195 196 198 201 204 206 209 210 205 203 214 231 240 248 259 276 301 318 328 320 319 337 352 353 351 350 346 343 343 345 351 357 356 352 353 1 10 5 1 5 6 5 9 9 8 12 7 359 359 1 1
227 228 228 226 222 216 211 209 208 206 204 204 205 205 206 204 200 196 194 193 192 191 191 191 192 192 191 191 192 194 194 194 195 196 199 202 204 206 208 206 207 209 207 209 221 226 227 236 251 274 303 312 319 322 329 347 354 342 340 344 342 338 335 339 352 360 353 350 349 356 8 4 357 0 3 4 10 9 9 14 7 358 357 1 1
228 227 226 224 221 216 212 208 206 204 204 204 205 207 209 206 199 195 193 192 192 192 191 189 189 191 192 193 194 195 196 196 196 198 201 204 208 212 213 212 212 213 214 216 221 222 225 235 249 271 292 297 306 321 332 340 336 330 337 344 340 337 338 340 348 352 351 350 347 350 3 3 354 355 359 2 7 7 9 12 2 354 357 1 2
226 226 225 223 219 215 211 208 205 205 205 205 207 209 210 207 201 195 192 192 193 194 193 191 190 191 192 194 196 196 196 197 197 200 203 206 210 213 216 218 220 222 226 225 223 223 228 238 247 251 264 277 291 317 327 327 325 327 337 342 335 336 341 341 337 336 344 349 345 341 351 0 354 351 356 1 3 4 8 8 357 353 359 2 2
227 226 225 223 219 215 211 208 206 206 205 206 208 210 209 207 202 197 194 193 193 193 194 194 193 193 193 195 196 196 197 198 199 202 204 206 209 212 216 220 222 225 230 229 227 230 238 245 247 243 248 261 282 310 319 316 318 324 331 335 332 332 335 331 321 321 334 346 345 335 340 354 353 347 352 1 2 1 7 8 358 356 0 3 3
228 226 225 224 220 216 212 210 209 207 206 206 208 209 208 205 201 199 196 195 194 194 195 196 196 196 196 195 195 196 198 200 202 203 205 207 208 210 213 217 220 223 225 226 229 238 248 251 249 244 242 256 278 297 300 301 311 322 326 325 323 322 323 320 312 314 329 345 345 331 331 344 349 344 348 358 1 0 7 7 360 358 1 4 4
224 224 223 222 220 217 215 213 211 209 209 210 210 209 207 203 200 200 199 197 196 197 197 199 199 199 199 198 197 197 199 201 203 203 205 207 208 209 211 213 216 218 221 225 230 241 250 251 252 249 241 252 270 277 282 291 305 318 317 311 311 314 315 312 307 312 328 345 344 332 326 335 344 341 342 353 0 1 6 4 358 359 3 4 5
223 223 221 220 218 217 215 213 211 211 213 213 211 208 204 200 199 199 199 198 197 198 199 200 202 203 202 201 201 201 201 202 203 203 205 207 208 210 211 213 216 219 224 231 234 243 251 251 253 255 249 255 265 271 283 297 306 308 299 293 298 306 309 308 306 313 333 350 350 342 323 326 338 340 339 349 358 2 10 4 355 358 3 3 4
221 221 220 219 218 215 213 212 211 213 215 214 210 206 202 200 199 199 199 198 198 198 199 201 202 204 205 204 204 205 204 204 204 204 206 208 210 211 213 215 220 226 234 239 239 244 252 253 253 254 253 259 268 274 284 295 295 290 284 285 296 305 306 309 310 317 337 353 3 352 322 321 335 341 339 345 354 3 12 3 354 355 1 2 3
218 219 219 219 218 215 213 212 212 214 217 216 211 205 202 201 200 200 200 199 198 198 200 201 203 205 206 206 207 207 207 206 206 206 207 210 211 213 215 217 222 229 232 232 233 237 244 248 247 249 253 258 265 271 275 273 270 273 275 283 297 303 303 311 314 318 333 354 20 350 325 324 335 341 339 342 351 8 11 1 357 355 357 360 3
218 219 218 217 216 214 213 214 215 218 221 219 213 206 203 203 203 202 201 199 198 198 200 202 204 205 206 208 210 210 209 208 208 207 210 212 213 215 217 218 225 232 229 224 226 231 235 239 240 244 250 257 264 270 272 267 259 263 270 276 284 286 292 302 304 312 328 354 31 341 331 331 337 343 342 340 346 3 0 356 0 357 353 357 2
218 217 214 213 213 213 214 216 218 221 224 221 214 208 205 205 205 203 201 198 197 198 199 201 202 204 206 209 211 212 212 210 210 210 213 216 216 218 220 221 228 234 228 222 225 229 233 236 241 245 250 257 266 270 269 266 262 263 267 268 267 267 272 282 295 312 328 356 11 338 334 331 334 343 348 344 340 339 338 348 1 357 348 350 356